Regional Weather Roundup
Issued by NWS Grand Forks, ND

Home | Current Version | Previous Version | Graphics & Text | Print | Product List | Glossary On
Versions: 1 2 3 4 5 6 7 8 9 10 11 12 13 14 15 16 17 18 19 20 21 22 23 24 25 26 27 28 29 30 31 32 33 34 35 36 37 38 39 40 41 42 43 44 45 46 47 48 49 50
191
ASUS43 KFGF 231631
RWRFGF
PRAIRIE TO PINES  WEATHER ROUNDUP
NATIONAL WEATHER SERVICE EASTERN NORTH DAKOTA/GRAND FORKS ND
1100 AM CDT SUN JUL 23 2017

 **SATELLITE DATA USED TO AUGMENT SKY COVER AT AUTOMATED STATIONS**
 *****  WEATHER ACROSS EASTERN NORTH DAKOTA  *****

CITY           SKY/WX    TMP DP  RH WIND       PRES   REMARKS
GRAND FORKS    PTSUNNY   70  62  76 N7        30.01S
GRAND FRKS AFB CLOUDY    66  60  80 NE7       30.02S
DEVILS LAKE    FAIR      69  58  67 NW8       30.06S
FARGO          CLOUDY    66  60  81 N12       30.01R
WAHPETON ARPT  CLOUDY    64  55  72 N8        30.02R
$$

 ***** WEATHER ACROSS CENTRAL AND WESTERN NORTH DAKOTA  *****

CITY           SKY/WX    TMP DP  RH WIND       PRES   REMARKS
BISMARCK       FAIR      73  57  57 VRB5      30.09S
MINOT          FAIR      73  53  49 CALM      30.06F
JAMESTOWN      FAIR      72  58  61 N12       30.05S
MINOT AFB      FAIR      71  55  55 SW3       30.04F
GARRISON         N/A     71  57  61 S6        30.07S
WILLISTON      FAIR      78  55  44 VRB5      30.05F
DICKINSON      FAIR      77  52  41 S6        30.07F
HETTINGER      FAIR      77  51  40 S6        30.10F
$$

 *****  OTHER AIRPORT OBSERVATIONS IN OUR AREA  *****

CITY           SKY/WX    TMP DP  RH WIND       PRES   REMARKS
WALHALLA       NOT AVBL
GRAFTON AIRPOR CLOUDY    70  63  78 N7        30.03F
VALLEY CITY AR PTSUNNY   72  61  68 NE9       30.06R
CANDO          NOT AVBL
CAVALIER APRT  FAIR      70  63  78 N6        30.02S
GWINNER        CLOUDY    68  61  77 N10       30.04R
SHEYENNE NWR     N/A     65  60  85 N7        29.95S
ROLLA            N/A     70  54  56 NE3       30.08S
 ***** THE ABOVE OBSERVATIONS ARE NON NWS ARE NOT QUALITY
       CONTROLLED AND MAY MIS-REPORT RAIN FOR SNOW...
$$

  *****  WEATHER ACROSS NORTHERN MINNESOTA  *****

CITY           SKY/WX    TMP DP  RH WIND       PRES   REMARKS
FLAG ISLAND    FAIR      72  59  64 CALM      30.01R
WARROAD        FAIR      70  63  78 NE8       30.03R
ROSEAU         FAIR      72  63  73 NE7       30.01S
HALLOCK        PTSUNNY   72  63  73 CALM      30.01S
THF RVR FALLS  CLOUDY    68  59  73 NE6       30.02R
BAUDETTE       FAIR      70  60  70 E7        30.00R
WASKISH        PTSUNNY   68  59  73 NE7       30.00S
CROOKSTON      PTSUNNY   70  61  73 E6        30.01S
STEPHEN NDAWN    N/A     70  63  78 NE5         N/A
GREENBUSH NDAW   N/A    N/A N/A N/A NE6         N/A
$$
  *****  WEATHER ACROSS CENTRAL AND WEST MINNESOTA  *****

CITY           SKY/WX    TMP DP  RH WIND       PRES   REMARKS
FOSSTON        CLOUDY    70  63  78 N8        30.01S
BEMIDJI        CLOUDY    66  58  77 NE10      30.00R
PARK RAPIDS    CLOUDY    69  58  67 N12       29.98R
ELBOW LAKE     CLOUDY    66  60  81 NW12      30.01R
WADENA         CLOUDY    68  57  68 N9        29.98R
DETROIT LAKES  CLOUDY    66  59  77 NW12      30.01S
MOORHEAD       CLOUDY    64  59  82 NW9       30.02R
FERGUS FALLS   CLOUDY    66  57  72 N9        30.01R
MORRIS MN      PTSUNNY   70  59  68 NW14      30.00R
STAPLES        CLOUDY    68  57  68 N9        29.97R
$$
  *****  WEATHER ELSEWHERE ACROSS MINNESOTA  *****

CITY           SKY/WX    TMP DP  RH WIND       PRES   REMARKS
DULUTH         CLOUDY    62  58  86 NE8       29.95R
INTRNTL FALLS  FAIR      71  54  54 E9        29.99R
ELY            CLOUDY    63  55  77 NE8       29.97R
CLOQUET        CLOUDY    63  55  77 E7        29.95R
WHEATON        CLOUDY    66  57  72 NW10      30.04R
BRAINERD       PTSUNNY   69  57  65 N16       29.95R
HIBBING        CLOUDY    62  58  86 N7        29.96R
ALEXANDRIA     CLOUDY    67  58  72 NW9       30.00R
SAINT CLOUD    CLOUDY    70  61  73 NW12      29.94R
MINNEAPOLIS    PTSUNNY   74  59  59 NW12      29.92R
$$

  *****  WEATHER ACROSS SOUTH DAKOTA  *****

CITY           SKY/WX    TMP DP  RH WIND       PRES   REMARKS
SIOUX FALLS    FAIR      76  62  62 N17       30.01S
BROOKINGS      FAIR      72  59  63 N13G21    30.03R
WATERTOWN      FAIR      71  60  68 NW14G22   30.02R
HURON          FAIR      73  60  63 N9        30.05R
SISSETON         N/A     67  60  78 NW13      30.02R
ABERDEEN       FAIR      72  59  63 N14       30.05R
MITCHELL       FAIR      75  60  59 N15G23    30.05R
PIERRE         FAIR      79  52  38 N7        30.05F
MOBRIDGE       FAIR      75  58  55 N8        30.05F
RAPID CITY     FAIR      79  47  32 SE7       30.12F
$$

  *****  SOME WEATHER IN NEARBY STATES *****

CITY           SKY/WX    TMP DP  RH WIND       PRES   REMARKS
GLASGOW MT     FAIR      77  46  33 SE12      30.00F
GREAT FALLS MT FAIR      81  40  23 S5        30.04F
CHEYENNE WY    FAIR      80  53  39 VRB5      30.27S
SCOTTSBLUFF NE FAIR      80  54  40 E9        30.13F
OMAHA NE       FAIR      84  68  58 CALM      29.96F
DES MOINES IA  FAIR      85  69  58 NW13      29.91R
DAVENPORT IA   FAIR      83  73  72 W7        29.87S
CHICAGO IL     FAIR      86  65  49 VRB7      29.80S
EAU CLAIRE WI  FAIR      74  59  59 N9        29.87R
LA CROSSE WI   PTSUNNY   78  68  71 NW9       29.84S
$$

  *****  SOME NATIONAL WEATHER *****

CITY           SKY/WX    TMP DP  RH WIND       PRES   REMARKS
LA GUARDIA NY  PTSUNNY   79  69  71 NE14      29.80S
RALEIGH NC     PTSUNNY   94  76  55 W9        29.89S HX 106
ATLANTA GA     FAIR      88  74  63 NW6       29.99F HX  96
NEW ORLEANS LA LGT RAIN  76  74  93 SW8       30.02S
OKLAHOMA CITY  FAIR      88  71  57 NE14      29.94R HX  94
ALBUQUERQUE NM PTSUNNY   76  57  51 NW5       30.20S
SALT LAKE CITY FAIR      84  48  28 SE10      30.08F
LOS ANGELES CA PTSUNNY   72  66  81 W5        29.90R
BOISE ID       FAIR      77  43  29 CALM      30.03S
SEATTLE WA     CLOUDY    65  55  70 N10       30.11R
$$

*** WEATHER ACROSS MANITOBA...SASKATCHEWAN AND ONTARIO ***
                ***ONTARIO***

CITY           SKY/WX    TMP DP  RH WIND       PRES   REMARKS
GERALDTON      MOSUNNY   70  50  49 E6        29.98R
THUNDER BAY    MOSUNNY   70  57  64 E17       29.94R
SIOUX LOOKOUT  MOSUNNY   72  50  46 CALM      30.00R
TORONTO        PTSUNNY   73  66  78 E10       29.79S
BIG TROUT LK   SUNNY     68  45  42 S3        30.00F
PICKLE LAKE    SUNNY     72  45  37 W5        30.00S
DRYDEN         SUNNY     72  55  56 NE8       30.00S
KENORA         MOSUNNY   70  59  68 N7        30.02S
$$
                *** MANITOBA***

CITY           SKY/WX    TMP DP  RH WIND       PRES   REMARKS
BRANDON        SUNNY     70  59  68 SW5       30.05S
DAUPHIN        SUNNY     73  57  56 W10       30.01S
ISLAND LAKE    PTSUNNY   73  54  49 CALM      29.96S
PILOT MOUND      N/A     68  57  68 NW3         N/A
THE PAS        PTSUNNY   73  57  56 SW8       29.92S
THOMPSON       PTSUNNY   73  50  43 SW9       29.86F
WINNIPEG       MOSUNNY   72  61  68 CALM      30.02R
LYNN LAKE      MOSUNNY   73  57  56 S9        29.79F
CHURCHILL      PTSUNNY   79  52  38 SW17      29.72F
GILLAM         CLOUDY    77  50  38 SW10G18   29.86F
$$
                ***SASKATCHEWAN***

CITY           SKY/WX    TMP DP  RH WIND       PRES   REMARKS
ESTEVAN        SUNNY     73  59  60 S9        30.04F
KINDERSLEY     MOSUNNY   73  57  56 S5        29.90F
LLOYDMINSTER   PTSUNNY   70  57  64 NE7       29.90F
PRINCE ALBERT  PTSUNNY   73  63  68 SW6       29.90F
REGINA         PTSUNNY   77  57  50 S10       29.99F
YORKTON        SUNNY     72  59  64 SW9G18    30.00F
N. BATTLEFORD  PTSUNNY   73  59  60 NE5       29.90S
LA RONGE       PTSUNNY   66  63  88 SE8       29.85
SASKATOON      PTSUNNY   72  59  64 SW8       29.92F
SWIFT CURRENT  MOSUNNY   77  54  44 S13       29.94F
$$
NOTE: THESE ARE AUTOMATED STATIONS WITH LIMITED QUALITY CONTROL
      "FAIR" INDICATES FEW OR NO CLOUDS BELOW 12,000 FEET WITH NO
      SIGNIFICANT WEATHER AND/OR OBSTRUCTIONS TO VISIBILITY.
      SKY/WX - SKY CONDITION AND SIGNIFICANT WEATHER.
      TMP - AIR TEMPERATURE.    DP   - DEWPOINT TEMPERATURE.
      RH  - RELATIVE HUMIDITY.  PRES - PRESSURE.
      HX  - HEAT INDEX.         WCI  - WIND CHILL INDEX.
$




USA.gov is the U.S. government's official web portal to all federal, state and local government web resources and services.